Wind_Speed
17 18 20 19 18 17 16 16 15 13 13 14 15 14 13 10 10 10 11 9 5 2 4 7 7 18 20 16 5 11 9 15 7 7 12 17 8 9 6 7 7 6 9 11 15
16 18 19 21 22 22 21 20 18 17 16 15 16 16 16 14 13 10 10 10 8 5 3 7 7 9 14 16 13 10 15 14 8 5 15 16 8 12 10 6 8 10 8 16 16
16 16 18 20 22 23 25 25 23 20 19 18 17 17 17 17 17 13 8 9 11 9 5 5 6 7 13 18 13 9 6 9 9 14 10 18 8 11 8 6 7 5 12 19 20
15 16 18 19 20 22 24 26 27 27 23 21 20 18 18 18 11 8 9 10 11 11 8 7 4 12 22 17 0 10 4 12 20 19 19 9 13 9 8 9 9 1 13 19 23
15 15 16 18 20 21 22 24 26 29 30 27 24 22 21 22 21 12 12 13 13 12 10 10 4 14 13 14 17 4 12 0 13 11 10 10 9 4 3 5 5 4 16 22 23
14 14 15 15 17 20 21 23 23 26 29 30 30 28 27 26 19 18 16 12 15 14 11 10 4 16 13 8 13 3 5 6 11 6 15 17 13 4 3 6 4 10 18 22 21
14 13 13 14 15 16 18 21 22 24 25 29 31 33 35 29 16 13 16 20 14 12 13 8 9 16 13 6 8 9 6 3 6 10 13 14 7 9 7 11 9 11 17 22 23
14 13 13 13 14 15 16 16 19 21 23 26 28 32 40 34 30 21 19 22 21 18 15 10 13 18 14 11 11 14 8 10 6 17 13 12 11 8 16 18 16 11 15 23 22
15 13 11 11 13 13 14 15 15 17 20 22 25 30 36 35 39 34 31 27 21 20 17 15 15 17 17 13 15 14 18 18 14 10 9 13 12 11 19 21 15 15 15 25 27
17 17 16 13 12 11 11 10 11 15 16 17 21 25 26 21 20 32 35 35 35 31 23 19 19 20 18 15 23 7 4 1 17 16 10 24 21 16 17 26 19 18 15 20 30
17 16 17 18 17 14 11 11 11 15 14 15 14 20 24 7 13 16 15 24 32 33 28 28 23 28 23 20 19 21 8 10 17 19 24 23 29 25 18 26 21 23 13 20 23
17 16 15 17 17 18 18 15 13 14 18 15 21 28 27 20 22 22 25 21 20 29 34 33 32 27 26 21 23 25 14 9 16 11 18 23 25 43 26 15 15 23 23 21 23
17 17 15 16 14 16 18 22 15 18 23 28 25 30 29 32 33 29 28 29 29 29 29 32 38 32 27 28 25 28 23 8 17 6 8 28 26 34 25 22 21 20 28 25 20
22 21 21 15 13 14 19 19 15 18 18 32 22 16 26 29 42 35 26 22 28 30 30 33 33 32 31 32 29 31 25 26 17 16 34 15 9 32 29 30 28 22 30 26 23
23 21 17 13 11 12 17 13 11 9 5 11 7 2 1 18 26 38 37 28 31 30 31 37 31 34 37 37 33 33 28 31 32 29 32 24 18 25 36 35 30 26 18 27 26
24 22 14 12 10 10 9 4 3 3 8 7 4 9 12 11 21 21 21 29 32 30 33 36 31 31 36 35 33 33 33 30 31 30 21 26 26 17 43 32 29 21 22 18 21
24 21 17 11 10 7 4 5 3 6 1 9 19 15 13 14 18 23 29 31 36 30 36 33 36 35 34 35 35 35 34 23 13 12 6 22 26 3 22 35 32 16 32 27 23
24 20 15 10 6 8 6 8 8 5 10 20 19 16 15 24 20 21 27 31 37 35 19 29 32 35 32 35 38 37 37 23 7 6 12 19 1 7 15 21 17 11 27 31 32
20 16 12 8 5 5 9 9 7 3 8 18 23 19 15 10 9 9 23 30 33 33 40 23 38 33 32 33 30 39 39 34 32 37 16 7 9 7 7 16 24 18 35 36 37
13 12 11 10 4 4 9 16 14 13 15 10 14 12 18 12 16 19 21 18 24 32 35 39 35 29 32 31 37 37 36 30 33 11 9 5 9 8 11 19 21 11 28 41 36
12 7 2 5 10 9 11 12 13 12 16 16 15 18 18 21 16 20 14 11 15 18 29 36 36 40 30 33 36 38 38 41 24 29 6 4 7 19 17 21 26 22 21 47 36
8 6 8 15 12 5 10 8 10 16 10 11 12 15 18 18 21 18 17 10 18 11 14 15 19 37 44 36 25 38 36 41 31 22 28 27 10 9 12 12 29 29 11 42 39
5 10 4 12 9 6 9 11 12 13 10 15 12 12 14 21 19 15 14 11 13 16 7 10 9 14 28 40 38 32 44 35 41 32 31 12 13 16 14 15 35 31 20 46 44
0 4 3 14 5 8 10 13 13 14 15 12 16 15 13 15 17 20 15 11 13 12 12 15 14 10 15 18 24 23 33 43 37 34 31 33 29 17 14 9 15 19 24 43 48
3 6 10 9 11 8 10 11 7 8 9 10 11 15 13 15 17 18 16 18 15 14 12 7 16 16 26 27 23 22 20 40 39 38 37 34 20 25 25 25 27 19 20 51 38
11 16 20 20 18 9 8 12 14 13 11 9 17 7 7 10 7 8 11 4 4 10 8 5 9 14 27 25 19 23 22 13 42 42 35 36 26 9 10 25 22 16 32 41 29
15 16 19 13 15 7 11 11 12 14 10 6 5 9 4 9 12 16 12 9 11 9 12 8 16 14 15 17 15 20 23 18 16 38 39 36 25 21 21 32 23 14 21 34 25
Wind_Direction
271 266 261 258 257 256 253 252 248 247 242 238 241 236 233 233 239 229 231 235 222 249 341 351 15 11 348 341 252 277 7 350 336 239 103 137 124 135 116 144 132 157 171 184 177
273 271 267 263 258 255 254 253 251 245 247 242 237 241 239 231 232 232 233 249 258 249 302 329 42 328 303 306 282 234 316 344 316 205 135 119 137 138 143 151 151 186 197 187 180
277 272 269 267 265 260 254 252 252 249 242 245 243 238 241 240 239 238 239 246 249 251 256 308 31 15 337 336 310 275 182 60 156 139 114 116 126 156 139 168 241 227 184 174 173
283 280 277 271 266 262 260 255 251 250 247 240 242 241 238 239 238 234 234 244 249 252 242 261 8 335 328 355 330 317 178 86 111 132 130 113 154 177 174 282 252 324 182 170 171
288 285 279 275 273 269 263 258 255 252 250 244 240 238 239 235 223 215 218 238 247 243 238 241 69 355 325 3 317 75 124 306 126 133 98 160 150 155 305 216 238 213 178 167 173
293 290 289 284 277 272 268 264 259 254 254 250 245 240 239 239 234 242 233 229 241 242 235 233 15 325 298 326 24 330 276 99 165 154 142 126 123 278 142 303 307 170 171 168 169
307 302 298 295 290 281 274 269 264 259 255 254 253 247 241 230 233 209 235 222 232 232 234 206 288 290 283 309 326 323 203 284 174 126 169 175 159 152 188 234 267 187 173 175 173
307 307 305 304 300 293 286 276 269 264 258 255 254 254 248 234 227 226 236 228 228 235 246 225 242 260 283 314 310 312 228 324 138 162 172 234 193 213 191 220 238 209 195 183 189
305 303 305 302 302 308 300 288 278 268 261 257 256 255 254 243 239 234 240 247 235 241 252 262 264 270 279 288 295 292 259 271 244 187 240 224 211 188 190 213 224 213 205 186 196
293 294 299 301 305 301 308 306 300 281 268 258 257 257 249 256 254 245 240 241 245 249 242 241 256 268 273 274 269 275 230 256 256 230 258 276 243 202 196 211 226 208 215 198 201
288 284 284 289 297 303 296 296 298 289 278 265 241 234 221 199 197 230 235 237 238 239 237 240 244 250 257 255 262 272 246 207 279 236 291 272 252 228 210 202 216 203 221 210 206
301 291 285 278 280 290 296 294 296 294 292 284 273 254 244 194 198 190 207 209 224 230 233 237 236 238 251 255 260 268 253 287 294 248 297 253 253 239 217 251 215 201 211 210 202
318 314 305 297 288 282 279 279 291 298 301 297 289 265 251 225 218 203 216 208 210 218 230 230 241 236 236 246 254 261 240 236 200 181 252 270 266 238 217 218 213 207 210 220 205
319 316 306 300 290 272 266 282 288 299 309 307 320 290 232 229 233 223 193 206 228 225 228 232 233 236 237 241 242 255 251 233 258 220 242 207 236 211 213 208 220 214 201 220 209
324 319 309 303 279 265 275 286 283 304 319 325 322 262 24 241 231 227 224 205 216 219 229 234 235 231 236 239 240 245 254 248 242 229 275 253 218 222 216 202 219 228 219 218 222
321 317 305 295 286 283 276 247 210 134 244 261 273 287 272 239 239 230 232 233 221 220 227 238 229 236 231 237 242 244 250 262 266 267 238 252 264 236 199 216 214 227 247 231 233
320 316 304 283 272 267 248 180 130 224 296 288 321 304 249 246 241 238 219 225 221 225 235 236 237 232 234 238 236 241 247 249 273 274 221 250 262 10 209 199 188 273 239 246 249
317 313 300 285 247 242 226 173 224 235 273 318 318 290 294 232 245 225 231 229 225 221 231 229 237 228 231 234 235 238 238 229 227 232 244 255 201 134 154 182 186 230 240 233 241
317 310 304 287 228 210 205 198 214 268 295 324 305 303 290 250 268 255 233 232 229 226 224 237 233 229 231 231 225 234 240 241 239 254 272 135 134 135 173 207 235 283 194 221 226
315 313 316 304 57 296 229 237 243 242 269 287 293 281 300 291 273 281 289 230 246 234 231 229 254 232 230 232 234 234 236 239 238 237 252 201 188 195 259 264 231 236 208 209 221
324 332 228 275 310 297 252 256 280 272 317 262 260 267 281 287 293 300 287 288 277 251 234 231 237 245 239 242 235 232 237 236 244 239 214 175 240 237 241 251 224 232 273 209 215
329 112 245 304 308 274 269 284 299 292 254 274 261 279 282 295 303 301 273 308 345 295 247 224 232 238 245 240 233 236 235 230 233 246 242 251 248 188 235 235 236 252 250 217 214
342 191 220 286 303 265 292 270 268 263 255 270 270 275 277 282 289 272 294 257 337 349 321 264 220 245 246 249 246 256 228 229 233 243 255 250 245 208 213 222 223 242 251 213 211
66 74 327 245 318 299 298 286 293 258 270 271 259 265 267 273 262 272 286 279 312 343 324 305 269 262 274 248 242 258 234 223 228 236 248 256 264 211 227 301 241 200 239 202 208
193 160 254 219 221 257 257 269 277 268 295 245 264 249 253 274 272 275 285 281 271 295 322 294 279 279 247 239 266 282 280 216 224 231 237 248 262 252 245 246 229 240 223 202 204
240 235 240 240 231 254 260 277 275 273 281 270 251 276 278 252 286 333 331 320 314 282 335 358 320 299 261 253 266 289 270 273 220 231 239 246 260 250 186 187 190 213 199 197 213
286 266 265 257 234 232 267 254 256 259 252 245 289 274 264 286 288 259 277 253 250 318 316 342 351 338 282 263 288 284 260 251 277 219 231 245 247 202 182 196 233 217 208 199 229
Height
3155 3155 3155 3156 3157 3158 3158 3159 3159 3160 3161 3162 3163 3163 3164 3165 3166 3167 3168 3170 3170 3171 3170 3170 3169 3167 3166 3168 3172 3170 3169 3167 3164 3160 3155 3162 3166 3169 3171 3172 3174 3174 3175 3175 3176
3151 3151 3151 3152 3153 3154 3154 3155 3157 3158 3158 3159 3160 3162 3162 3163 3164 3165 3167 3167 3168 3169 3170 3169 3166 3168 3167 3167 3173 3176 3171 3169 3163 3163 3161 3163 3167 3169 3171 3174 3172 3170 3174 3175 3177
3147 3147 3147 3147 3148 3149 3150 3151 3152 3154 3155 3156 3157 3159 3160 3160 3162 3163 3164 3165 3166 3168 3169 3169 3168 3168 3167 3168 3172 3171 3169 3165 3161 3166 3167 3165 3168 3171 3171 3173 3174 3172 3173 3174 3177
3143 3143 3143 3143 3143 3143 3145 3146 3148 3149 3151 3152 3154 3155 3156 3158 3161 3160 3162 3163 3165 3166 3168 3168 3168 3167 3169 3168 3167 3167 3166 3166 3165 3170 3172 3172 3173 3171 3174 3172 3172 3173 3174 3175 3177
3140 3139 3139 3138 3138 3138 3139 3140 3142 3143 3145 3148 3149 3151 3152 3153 3156 3157 3159 3161 3162 3164 3166 3167 3167 3168 3168 3169 3168 3168 3170 3171 3169 3171 3174 3173 3174 3173 3173 3170 3168 3171 3172 3175 3178
3137 3136 3135 3134 3133 3133 3133 3134 3136 3137 3139 3141 3143 3145 3147 3149 3154 3155 3156 3158 3160 3161 3163 3165 3166 3169 3167 3168 3169 3168 3168 3171 3170 3171 3174 3172 3173 3171 3171 3166 3168 3171 3173 3176 3178
3135 3134 3132 3131 3130 3129 3129 3129 3129 3131 3132 3134 3136 3137 3139 3146 3150 3149 3150 3155 3158 3159 3161 3162 3166 3166 3166 3166 3166 3168 3170 3170 3171 3171 3173 3171 3174 3172 3171 3168 3168 3170 3173 3176 3179
3132 3131 3130 3128 3127 3126 3124 3124 3124 3125 3126 3127 3129 3129 3129 3141 3145 3145 3148 3150 3154 3156 3158 3160 3162 3163 3164 3165 3163 3165 3168 3169 3170 3170 3171 3169 3171 3170 3169 3166 3167 3168 3171 3174 3177
3129 3128 3126 3125 3124 3123 3121 3121 3120 3119 3120 3121 3123 3122 3124 3132 3134 3142 3145 3147 3151 3153 3155 3158 3160 3160 3161 3162 3162 3164 3165 3170 3168 3170 3170 3168 3168 3168 3167 3165 3163 3165 3167 3172 3174
3126 3123 3122 3122 3121 3120 3119 3118 3116 3115 3116 3116 3117 3120 3124 3126 3128 3133 3138 3142 3145 3149 3152 3155 3157 3158 3159 3161 3159 3163 3161 3166 3167 3166 3166 3168 3166 3166 3164 3163 3163 3162 3164 3168 3171
3122 3119 3118 3118 3117 3116 3116 3115 3116 3113 3113 3112 3112 3110 3116 3118 3121 3124 3130 3134 3139 3143 3145 3150 3153 3153 3155 3157 3158 3163 3159 3160 3163 3163 3163 3162 3164 3162 3161 3161 3160 3161 3161 3163 3167
3117 3115 3114 3113 3113 3113 3111 3111 3110 3109 3107 3108 3107 3106 3109 3114 3112 3116 3125 3129 3132 3133 3140 3145 3144 3149 3153 3155 3156 3157 3156 3158 3158 3162 3161 3154 3156 3157 3156 3156 3156 3158 3159 3161 3165
3113 3111 3109 3108 3109 3109 3107 3106 3107 3105 3102 3100 3099 3097 3102 3109 3106 3109 3118 3122 3125 3129 3132 3134 3137 3145 3148 3151 3152 3151 3154 3154 3157 3161 3156 3153 3153 3156 3153 3154 3156 3158 3158 3162 3164
3108 3107 3104 3105 3107 3103 3102 3103 3104 3102 3099 3093 3089 3089 3090 3097 3097 3107 3111 3117 3120 3122 3127 3128 3133 3138 3141 3144 3149 3146 3149 3149 3148 3157 3151 3148 3150 3147 3149 3150 3152 3156 3157 3157 3162
3104 3102 3100 3100 3100 3099 3099 3100 3101 3102 3102 3091 3090 3088 3089 3091 3095 3097 3106 3110 3110 3116 3124 3120 3126 3131 3133 3137 3142 3142 3142 3145 3147 3147 3146 3142 3142 3136 3142 3146 3146 3152 3158 3159 3159
3100 3097 3097 3095 3095 3096 3096 3097 3099 3103 3097 3089 3090 3090 3091 3091 3091 3096 3101 3104 3110 3111 3113 3115 3121 3125 3127 3132 3135 3139 3140 3139 3141 3144 3140 3142 3136 3133 3133 3136 3144 3152 3157 3160 3159
3095 3093 3091 3091 3091 3092 3093 3094 3098 3096 3091 3089 3089 3086 3088 3088 3089 3091 3093 3098 3100 3105 3104 3111 3112 3115 3121 3126 3129 3132 3135 3135 3138 3135 3134 3131 3132 3131 3128 3135 3137 3142 3152 3155 3159
3089 3087 3086 3086 3086 3088 3090 3093 3093 3089 3090 3088 3085 3082 3081 3085 3086 3087 3088 3091 3095 3099 3102 3104 3106 3107 3111 3116 3121 3122 3128 3130 3137 3135 3127 3128 3132 3132 3135 3141 3143 3140 3139 3148 3151
3084 3082 3082 3083 3083 3085 3088 3088 3088 3089 3089 3088 3083 3083 3080 3082 3083 3086 3087 3088 3090 3095 3097 3099 3097 3103 3105 3109 3115 3117 3117 3126 3127 3124 3126 3130 3132 3132 3134 3136 3137 3137 3137 3139 3143
3080 3078 3077 3077 3080 3083 3085 3083 3083 3085 3085 3087 3087 3086 3083 3079 3082 3083 3082 3086 3087 3089 3093 3093 3093 3095 3099 3105 3105 3108 3117 3119 3118 3121 3125 3123 3125 3124 3128 3134 3132 3135 3137 3137 3138
3077 3077 3077 3078 3080 3081 3081 3082 3082 3083 3087 3086 3085 3083 3083 3081 3082 3081 3081 3083 3080 3078 3083 3087 3088 3086 3092 3091 3098 3103 3105 3108 3113 3114 3115 3122 3118 3117 3123 3127 3128 3131 3128 3132 3132
3076 3076 3077 3079 3080 3079 3079 3080 3080 3081 3082 3082 3082 3082 3082 3081 3079 3079 3078 3081 3082 3077 3075 3077 3078 3081 3078 3085 3090 3097 3099 3103 3105 3107 3108 3111 3114 3114 3116 3121 3122 3127 3121 3126 3129
3074 3075 3075 3076 3076 3076 3078 3079 3077 3077 3078 3080 3080 3081 3081 3080 3081 3076 3076 3078 3078 3076 3073 3074 3076 3075 3077 3081 3082 3087 3090 3095 3099 3104 3101 3107 3109 3110 3108 3115 3119 3120 3121 3125 3128
3074 3075 3076 3075 3075 3075 3076 3076 3075 3075 3075 3076 3077 3077 3077 3076 3078 3073 3075 3073 3075 3076 3074 3073 3071 3073 3074 3075 3082 3083 3084 3089 3094 3095 3098 3100 3105 3105 3105 3108 3112 3111 3115 3116 3123
3072 3072 3070 3071 3071 3072 3073 3073 3072 3073 3072 3073 3074 3074 3076 3075 3073 3073 3070 3067 3071 3070 3069 3071 3068 3069 3066 3067 3071 3075 3079 3081 3086 3090 3093 3097 3099 3100 3100 3100 3107 3110 3113 3117 3121
3069 3065 3065 3064 3067 3067 3068 3069 3070 3070 3072 3072 3070 3068 3072 3073 3072 3069 3068 3070 3070 3069 3068 3067 3066 3064 3058 3062 3067 3068 3070 3074 3079 3085 3089 3093 3095 3095 3101 3106 3108 3110 3115 3121 3118
3062 3061 3060 3061 3062 3064 3066 3064 3066 3065 3066 3069 3069 3070 3069 3066 3067 3067 3066 3068 3069 3071 3070 3070 3067 3065 3059 3064 3067 3066 3067 3072 3076 3079 3085 3087 3090 3092 3095 3103 3104 3106 3112 3118 3119